AFL1505 USTR-UUEE

Flight info

Callsign AFL1505
Flight time N/A
Altitude 36000
Route BEPAR1Q BEPAR T448 BANAM T348 EKB M864 AGNOK T796 ORTIM L158 DIMGI DIMGI3W
Aircraft A320/M-SDE3FGHIRWY/LB1

Departure

Time 2026-04-19 09:11
Airport Roshchino International Airport (USTR)

Arrival

Time N/A
Airport Sheremetyevo International Airport (UUEE)
Time Latitude Longitude Altitude Speed Heading
2026-04-19 08:27 57.18053 65.34850 341 ft 0 kts 43°
2026-04-19 08:42 57.18053 65.34849 336 ft 0 kts 43°
2026-04-19 08:56 57.18048 65.34841 341 ft 2 kts 41°
2026-04-19 08:57 57.18033 65.34818 337 ft 3 kts 32°
2026-04-19 08:57 57.18015 65.34801 336 ft 3 kts 20°
2026-04-19 08:57 57.17996 65.34791 338 ft 3 kts
2026-04-19 08:57 57.17977 65.34793 339 ft 3 kts 330°
2026-04-19 08:58 57.17971 65.34800 340 ft 0 kts 318°
2026-04-19 08:58 57.17970 65.34800 340 ft 0 kts 318°
2026-04-19 09:00 57.17976 65.34789 339 ft 3 kts 315°
2026-04-19 09:00 57.17996 65.34751 337 ft 5 kts 313°
2026-04-19 09:00 57.18029 65.34690 338 ft 8 kts 315°
2026-04-19 09:01 57.18078 65.34602 337 ft 12 kts 315°
2026-04-19 09:01 57.18148 65.34474 335 ft 17 kts 315°
2026-04-19 09:01 57.18237 65.34306 339 ft 20 kts 314°
2026-04-19 09:01 57.18337 65.34118 339 ft 21 kts 315°
2026-04-19 09:02 57.18446 65.33918 338 ft 22 kts 315°
2026-04-19 09:02 57.18558 65.33708 339 ft 21 kts 315°
2026-04-19 09:02 57.18618 65.33555 338 ft 13 kts 281°
2026-04-19 09:02 57.18615 65.33399 340 ft 12 kts 264°
2026-04-19 09:03 57.18574 65.33274 338 ft 12 kts 227°
2026-04-19 09:03 57.18516 65.33158 334 ft 13 kts 227°
2026-04-19 09:03 57.18474 65.33023 334 ft 11 kts 261°
2026-04-19 09:03 57.18471 65.32887 331 ft 10 kts 270°
2026-04-19 09:04 57.18471 65.32759 329 ft 10 kts 269°
2026-04-19 09:04 57.18470 65.32608 333 ft 13 kts 268°
2026-04-19 09:04 57.18467 65.32446 340 ft 13 kts 268°
2026-04-19 09:04 57.18464 65.32278 343 ft 14 kts 268°
2026-04-19 09:05 57.18460 65.32065 346 ft 18 kts 268°
2026-04-19 09:05 57.18455 65.31822 359 ft 17 kts 266°
2026-04-19 09:05 57.18390 65.31626 359 ft 20 kts 227°
2026-04-19 09:05 57.18294 65.31433 360 ft 21 kts 227°
2026-04-19 09:06 57.18204 65.31252 362 ft 18 kts 228°
2026-04-19 09:06 57.18126 65.31091 366 ft 15 kts 228°
2026-04-19 09:06 57.18068 65.30975 368 ft 11 kts 228°
2026-04-19 09:06 57.18027 65.30890 372 ft 7 kts 228°
2026-04-19 09:07 57.17996 65.30827 373 ft 8 kts 228°
2026-04-19 09:07 57.17903 65.30638 375 ft 36 kts 227°
2026-04-19 09:07 57.17734 65.30298 378 ft 28 kts 227°
2026-04-19 09:07 57.17604 65.30033 384 ft 26 kts 229°
2026-04-19 09:08 57.17486 65.29794 389 ft 27 kts 227°
2026-04-19 09:08 57.17351 65.29522 389 ft 30 kts 228°
2026-04-19 09:08 57.17218 65.29254 388 ft 20 kts 227°
2026-04-19 09:08 57.17109 65.29031 389 ft 24 kts 228°
2026-04-19 09:09 57.16982 65.28770 388 ft 30 kts 227°
2026-04-19 09:09 57.16864 65.28517 382 ft 17 kts 252°
2026-04-19 09:09 57.16890 65.28265 377 ft 19 kts 288°
2026-04-19 09:09 57.16955 65.28174 378 ft 12 kts 39°
2026-04-19 09:10 57.17033 65.28336 380 ft 35 kts 48°
2026-04-19 09:10 57.17357 65.29000 385 ft 101 kts 47°
2026-04-19 09:10 57.17959 65.30206 376 ft 153 kts 46°
2026-04-19 09:10 57.18724 65.31793 701 ft 171 kts 51°
2026-04-19 09:11 57.19535 65.33397 1516 ft 172 kts 37°
2026-04-19 09:11 57.20736 65.33862 1982 ft 197 kts 351°
2026-04-19 09:11 57.21948 65.32389 2245 ft 228 kts 304°
2026-04-19 09:11 57.22408 65.29506 2707 ft 247 kts 269°
2026-04-19 09:12 57.22230 65.26345 3628 ft 246 kts 257°
2026-04-19 09:12 57.21867 65.23245 4580 ft 249 kts 256°
2026-04-19 09:12 57.21464 65.20128 5545 ft 250 kts 256°
2026-04-19 09:12 57.21064 65.17001 6500 ft 251 kts 256°
2026-04-19 09:13 57.20693 65.13840 7369 ft 254 kts 258°
2026-04-19 09:13 57.20347 65.10627 8218 ft 257 kts 259°
2026-04-19 09:13 57.20022 65.07362 9069 ft 261 kts 260°
2026-04-19 09:13 57.19706 65.04034 9836 ft 266 kts 261°
2026-04-19 09:14 57.19394 65.00659 10052 ft 267 kts 261°
2026-04-19 09:14 57.19093 64.97325 10100 ft 267 kts 261°
2026-04-19 09:14 57.18791 64.93950 10106 ft 267 kts 261°
2026-04-19 09:14 57.18486 64.90558 10107 ft 270 kts 261°
2026-04-19 09:15 57.18168 64.87092 10175 ft 273 kts 261°
2026-04-19 09:15 57.17843 64.83565 10544 ft 290 kts 261°
2026-04-19 09:15 57.17122 64.75761 11387 ft 320 kts 261°
2026-04-19 09:16 57.16748 64.71704 12136 ft 323 kts 261°
2026-04-19 09:16 57.16370 64.67612 12911 ft 325 kts 261°
2026-04-19 09:16 57.15991 64.63503 13679 ft 327 kts 261°
2026-04-19 09:16 57.15605 64.59361 14354 ft 329 kts 261°
2026-04-19 09:17 57.15212 64.55183 15019 ft 332 kts 261°
2026-04-19 09:17 57.14817 64.50976 15656 ft 335 kts 261°
2026-04-19 09:17 57.14564 64.46692 16273 ft 338 kts 267°
2026-04-19 09:17 57.14438 64.42352 16905 ft 341 kts 267°
2026-04-19 09:18 57.14305 64.37977 17521 ft 344 kts 266°
2026-04-19 09:18 57.14166 64.33558 18134 ft 347 kts 266°
2026-04-19 09:18 57.14022 64.29047 18696 ft 350 kts 266°
2026-04-19 09:18 57.13878 64.24563 19231 ft 352 kts 266°
2026-04-19 09:19 57.13733 64.20054 19768 ft 354 kts 266°
2026-04-19 09:19 57.13586 64.15521 20308 ft 356 kts 266°
2026-04-19 09:19 57.13436 64.10965 20828 ft 358 kts 266°
2026-04-19 09:19 57.13283 64.06375 21348 ft 360 kts 266°
2026-04-19 09:20 57.13128 64.01771 21854 ft 362 kts 266°
2026-04-19 09:20 57.12969 63.97133 22349 ft 364 kts 266°
2026-04-19 09:20 57.12805 63.92474 22844 ft 366 kts 266°
2026-04-19 09:20 57.12638 63.87781 23323 ft 368 kts 266°
2026-04-19 09:21 57.12471 63.83066 23776 ft 370 kts 266°
2026-04-19 09:21 57.12304 63.78323 24185 ft 372 kts 266°
2026-04-19 09:21 57.12001 63.73589 24605 ft 374 kts 259°
2026-04-19 09:21 57.11457 63.68913 25011 ft 374 kts 259°
2026-04-19 09:22 57.10909 63.64219 25405 ft 375 kts 259°
2026-04-19 09:22 57.10360 63.59518 25818 ft 376 kts 259°
2026-04-19 09:22 57.09811 63.54809 26209 ft 377 kts 259°
2026-04-19 09:22 57.09259 63.50086 26611 ft 378 kts 259°
2026-04-19 09:23 57.08707 63.45358 27008 ft 379 kts 259°
2026-04-19 09:23 57.08150 63.40618 27403 ft 380 kts 260°
2026-04-19 09:23 57.07589 63.35867 27787 ft 381 kts 260°
2026-04-19 09:23 57.07022 63.31103 28158 ft 382 kts 260°
2026-04-19 09:24 57.06451 63.26330 28522 ft 383 kts 260°
2026-04-19 09:24 57.05876 63.21541 28873 ft 384 kts 260°
2026-04-19 09:24 57.05299 63.16752 29215 ft 385 kts 260°
2026-04-19 09:24 57.04721 63.11947 29549 ft 386 kts 260°
2026-04-19 09:25 57.04139 63.07130 29881 ft 387 kts 260°
2026-04-19 09:25 57.03554 63.02301 30199 ft 388 kts 260°
2026-04-19 09:25 57.02969 62.97467 30502 ft 388 kts 260°
2026-04-19 09:25 57.02385 62.92649 30883 ft 385 kts 260°
2026-04-19 09:26 57.01799 62.87861 31270 ft 383 kts 260°
2026-04-19 09:26 57.01214 62.83099 31650 ft 382 kts 260°
2026-04-19 09:26 57.00634 62.78422 32022 ft 380 kts 260°
2026-04-19 09:26 57.00041 62.73650 32406 ft 378 kts 260°
2026-04-19 09:27 56.99457 62.68959 32789 ft 376 kts 260°
2026-04-19 09:27 56.98884 62.64354 33156 ft 374 kts 260°
2026-04-19 09:27 56.98299 62.59653 33540 ft 373 kts 260°
2026-04-19 09:27 56.97726 62.55089 33901 ft 371 kts 260°
2026-04-19 09:28 56.97147 62.50490 34235 ft 370 kts 260°
2026-04-19 09:28 56.96569 62.45898 34501 ft 370 kts 260°
2026-04-19 09:28 56.96178 62.42794 34639 ft 371 kts 260°
2026-04-19 09:28 56.95595 62.38187 34854 ft 372 kts 260°
2026-04-19 09:29 56.95007 62.33562 35036 ft 373 kts 260°
2026-04-19 09:29 56.94222 62.27414 35295 ft 375 kts 260°
2026-04-19 09:29 56.93624 62.22762 35486 ft 376 kts 260°
2026-04-19 09:29 56.93219 62.19618 35613 ft 377 kts 260°
2026-04-19 09:30 56.92617 62.14941 35798 ft 378 kts 260°
2026-04-19 09:30 56.92011 62.10261 35983 ft 379 kts 259°
2026-04-19 09:30 56.91401 62.05560 36055 ft 381 kts 259°
2026-04-19 09:31 56.90170 61.96133 36056 ft 381 kts 259°
2026-04-19 09:31 56.88935 61.86706 36054 ft 381 kts 259°
2026-04-19 09:32 56.87694 61.77291 36054 ft 381 kts 259°
2026-04-19 09:32 56.86440 61.67883 36048 ft 381 kts 259°
2026-04-19 09:33 56.85178 61.58479 36046 ft 381 kts 259°
2026-04-19 09:33 56.83910 61.49083 36039 ft 381 kts 259°
2026-04-19 09:34 56.82636 61.39693 36029 ft 381 kts 259°
2026-04-19 09:34 56.81367 61.30399 36019 ft 381 kts 259°
2026-04-19 09:35 56.80079 61.21019 36010 ft 381 kts 259°
2026-04-19 09:35 56.78787 61.11648 36000 ft 381 kts 259°
2026-04-19 09:36 56.77490 61.02281 35997 ft 381 kts 259°
2026-04-19 09:36 56.76181 60.92928 35996 ft 381 kts 258°
2026-04-19 09:37 56.74878 60.83576 35998 ft 380 kts 261°
2026-04-19 09:37 56.74709 60.74084 36000 ft 377 kts 277°
2026-04-19 09:38 56.75396 60.64621 35999 ft 377 kts 277°
2026-04-19 09:38 56.76065 60.55151 36003 ft 377 kts 277°
2026-04-19 09:39 56.76726 60.45669 36004 ft 377 kts 277°
2026-04-19 09:39 56.77376 60.36189 35999 ft 377 kts 276°
2026-04-19 09:40 56.78009 60.26700 35999 ft 377 kts 276°
2026-04-19 09:40 56.78636 60.17212 35996 ft 377 kts 276°
2026-04-19 09:41 56.79255 60.07723 35993 ft 377 kts 276°
2026-04-19 09:41 56.79831 59.98218 35988 ft 377 kts 276°
2026-04-19 09:42 56.80397 59.88715 35985 ft 377 kts 276°
2026-04-19 09:42 56.80959 59.79206 35979 ft 377 kts 276°
2026-04-19 09:43 56.81517 59.69703 35977 ft 377 kts 276°
2026-04-19 09:43 56.82068 59.60183 35975 ft 377 kts 275°
2026-04-19 09:44 56.82618 59.50666 35968 ft 377 kts 275°
2026-04-19 09:44 56.83156 59.41147 35968 ft 377 kts 275°
2026-04-19 09:45 56.83682 59.31627 35963 ft 377 kts 275°
2026-04-19 09:45 56.84201 59.22098 35959 ft 377 kts 275°
2026-04-19 09:46 56.84709 59.12569 35952 ft 377 kts 275°
2026-04-19 09:46 56.85163 59.03027 35953 ft 377 kts 273°
2026-04-19 09:47 56.85359 58.93464 35950 ft 377 kts 271°
2026-04-19 09:47 56.85476 58.83891 35949 ft 377 kts 271°
2026-04-19 09:48 56.85611 58.74319 35943 ft 377 kts 271°
2026-04-19 09:48 56.85770 58.64748 35943 ft 377 kts 271°
2026-04-19 09:49 56.85928 58.55171 35938 ft 377 kts 271°
2026-04-19 09:49 56.86073 58.45599 35943 ft 377 kts 271°
2026-04-19 09:50 56.86206 58.36029 35941 ft 377 kts 271°
2026-04-19 09:50 56.86334 58.26458 35939 ft 377 kts 271°
2026-04-19 09:51 56.86449 58.16886 35936 ft 377 kts 271°
2026-04-19 09:51 56.86558 58.07305 35935 ft 377 kts 271°
2026-04-19 09:52 56.86664 57.97731 35930 ft 377 kts 271°
2026-04-19 09:52 56.86765 57.88150 35931 ft 377 kts 271°
2026-04-19 09:53 56.86855 57.78569 35926 ft 377 kts 271°
2026-04-19 09:53 56.86938 57.68992 35921 ft 377 kts 270°
2026-04-19 09:54 56.87014 57.59410 35922 ft 377 kts 270°
2026-04-19 09:54 56.87084 57.49825 35913 ft 377 kts 270°
2026-04-19 09:55 56.87154 57.40245 35914 ft 377 kts 270°
2026-04-19 09:55 56.87211 57.30665 35908 ft 377 kts 270°
2026-04-19 09:56 56.87256 57.21083 35906 ft 377 kts 270°
2026-04-19 09:56 56.87296 57.11500 35904 ft 377 kts 270°
2026-04-19 09:57 56.87329 57.01917 35899 ft 377 kts 270°
2026-04-19 09:57 56.87351 56.92333 35899 ft 377 kts 270°
2026-04-19 09:58 56.87372 56.82747 35901 ft 377 kts 270°
2026-04-19 09:58 56.87384 56.73164 35899 ft 377 kts 270°
2026-04-19 09:59 56.87385 56.63581 35893 ft 377 kts 269°
2026-04-19 09:59 56.87373 56.53985 35894 ft 377 kts 269°
2026-04-19 10:00 56.87360 56.44395 35893 ft 377 kts 269°
2026-04-19 10:00 56.87425 56.34805 35892 ft 377 kts 270°
2026-04-19 10:01 56.87549 56.25216 35891 ft 377 kts 270°
2026-04-19 10:01 56.87655 56.15628 35894 ft 377 kts 270°
2026-04-19 10:02 56.87733 56.06033 35886 ft 377 kts 270°
2026-04-19 10:02 56.87803 55.96444 35886 ft 377 kts 269°
2026-04-19 10:03 56.86975 55.87032 35878 ft 378 kts 252°
2026-04-19 10:03 56.84944 55.78140 35879 ft 379 kts 250°
2026-04-19 10:04 56.82896 55.69246 35884 ft 380 kts 250°
2026-04-19 10:04 56.80849 55.60342 35881 ft 381 kts 250°
2026-04-19 10:05 56.78793 55.51439 35882 ft 381 kts 250°
2026-04-19 10:05 56.76726 55.42534 35882 ft 381 kts 249°
2026-04-19 10:06 56.74646 55.33636 35881 ft 382 kts 249°
2026-04-19 10:06 56.72560 55.24748 35875 ft 382 kts 249°
2026-04-19 10:07 56.70463 55.15853 35882 ft 382 kts 249°
2026-04-19 10:07 56.68360 55.06964 35878 ft 383 kts 249°
2026-04-19 10:08 56.66250 54.98072 35878 ft 383 kts 249°
2026-04-19 10:08 56.64486 54.90686 35877 ft 383 kts 249°
2026-04-19 10:09 56.62361 54.81800 35879 ft 384 kts 249°
2026-04-19 10:09 56.60224 54.72911 35877 ft 384 kts 249°
2026-04-19 10:10 56.58082 54.64027 35882 ft 384 kts 248°
2026-04-19 10:10 56.55929 54.55147 35880 ft 385 kts 248°
2026-04-19 10:11 56.53771 54.46273 35874 ft 385 kts 248°
2026-04-19 10:11 56.51604 54.37399 35881 ft 385 kts 248°
2026-04-19 10:12 56.49427 54.28519 35884 ft 386 kts 248°
2026-04-19 10:12 56.47243 54.19650 35885 ft 386 kts 248°
2026-04-19 10:13 56.45049 54.10789 35881 ft 386 kts 248°
2026-04-19 10:13 56.42842 54.01919 35877 ft 387 kts 248°
2026-04-19 10:14 56.40629 53.93060 35878 ft 387 kts 248°
2026-04-19 10:14 56.38422 53.84202 35875 ft 387 kts 248°
2026-04-19 10:15 56.36208 53.75340 35879 ft 388 kts 247°
2026-04-19 10:15 56.33977 53.66482 35873 ft 388 kts 247°
2026-04-19 10:16 56.31735 53.57634 35879 ft 388 kts 247°
2026-04-19 10:16 56.29458 53.48804 35877 ft 389 kts 246°
2026-04-19 10:17 56.27170 53.39975 35876 ft 389 kts 247°
2026-04-19 10:17 56.24888 53.31155 35877 ft 389 kts 246°
2026-04-19 10:18 56.22593 53.22338 35878 ft 390 kts 246°
2026-04-19 10:18 56.20292 53.13515 35880 ft 390 kts 246°
2026-04-19 10:19 56.16815 53.00303 35883 ft 390 kts 246°
2026-04-19 10:19 56.14488 52.91514 35880 ft 391 kts 246°
2026-04-19 10:20 56.12156 52.82708 35883 ft 391 kts 246°
2026-04-19 10:20 56.09832 52.73976 35879 ft 391 kts 246°
2026-04-19 10:21 56.07483 52.65193 35872 ft 391 kts 246°
2026-04-19 10:21 56.05143 52.56444 35883 ft 392 kts 246°
2026-04-19 10:22 56.02809 52.47644 35882 ft 392 kts 246°
2026-04-19 10:22 56.00465 52.38838 35882 ft 392 kts 246°
2026-04-19 10:23 55.98103 52.30057 35881 ft 392 kts 246°
2026-04-19 10:23 55.95763 52.21375 35883 ft 393 kts 245°
2026-04-19 10:24 55.93384 52.12599 35877 ft 393 kts 245°
2026-04-19 10:24 55.90996 52.03839 35879 ft 393 kts 245°
2026-04-19 10:25 55.88608 51.95073 35874 ft 393 kts 245°
2026-04-19 10:25 55.86213 51.86314 35884 ft 394 kts 245°
2026-04-19 10:26 55.83807 51.77560 35878 ft 394 kts 245°
2026-04-19 10:26 55.81395 51.68805 35879 ft 394 kts 245°
2026-04-19 10:27 55.78971 51.60057 35875 ft 395 kts 245°
2026-04-19 10:27 55.76540 51.51318 35874 ft 395 kts 245°
2026-04-19 10:28 55.74098 51.42575 35878 ft 395 kts 245°
2026-04-19 10:28 55.71771 51.33751 35879 ft 395 kts 248°
2026-04-19 10:29 55.69703 51.24740 35873 ft 394 kts 249°
2026-04-19 10:29 55.67659 51.15713 35879 ft 394 kts 249°
2026-04-19 10:30 55.65556 51.06735 35877 ft 395 kts 248°
2026-04-19 10:30 55.63408 50.97793 35873 ft 395 kts 248°
2026-04-19 10:31 55.61254 50.88865 35878 ft 395 kts 248°
2026-04-19 10:31 55.59107 50.79924 35874 ft 395 kts 248°
2026-04-19 10:32 55.56956 50.70987 35874 ft 396 kts 248°
2026-04-19 10:32 55.54787 50.62048 35879 ft 396 kts 248°
2026-04-19 10:33 55.52608 50.53108 35877 ft 396 kts 248°
2026-04-19 10:33 55.50428 50.44172 35876 ft 397 kts 247°
2026-04-19 10:34 55.48243 50.35243 35878 ft 397 kts 247°
2026-04-19 10:34 55.46037 50.26323 35872 ft 397 kts 247°
2026-04-19 10:35 55.43837 50.17459 35886 ft 397 kts 247°
2026-04-19 10:35 55.41622 50.08540 35877 ft 397 kts 247°
2026-04-19 10:36 55.39574 49.99523 35884 ft 397 kts 255°
2026-04-19 10:36 55.39115 49.89866 35890 ft 400 kts 273°
2026-04-19 10:37 55.39616 49.80113 35891 ft 401 kts 272°
2026-04-19 10:37 55.40100 49.70340 35883 ft 401 kts 272°
2026-04-19 10:38 55.40571 49.60555 35900 ft 401 kts 272°
2026-04-19 10:38 55.41035 49.50763 35899 ft 402 kts 272°
2026-04-19 10:39 55.41492 49.40958 35912 ft 402 kts 272°
2026-04-19 10:39 55.41944 49.31212 35911 ft 402 kts 272°
2026-04-19 10:40 55.42349 49.22324 35916 ft 402 kts 272°
2026-04-19 10:40 55.42784 49.12496 35917 ft 403 kts 272°
2026-04-19 10:41 55.43658 48.92193 35912 ft 403 kts 272°
2026-04-19 10:42 55.44075 48.82340 35905 ft 404 kts 271°
2026-04-19 10:42 55.44481 48.72477 35910 ft 404 kts 271°
2026-04-19 10:43 55.44873 48.62604 35914 ft 404 kts 271°
2026-04-19 10:43 55.45452 48.52763 35915 ft 407 kts 280°
2026-04-19 10:44 55.47079 48.43171 35921 ft 409 kts 283°
2026-04-19 10:44 55.48747 48.33586 35926 ft 409 kts 283°
2026-04-19 10:45 55.50404 48.23987 35928 ft 409 kts 283°
2026-04-19 10:45 55.52052 48.14382 35929 ft 409 kts 283°
2026-04-19 10:46 55.53698 48.04752 35935 ft 410 kts 283°
2026-04-19 10:46 55.55342 47.95116 35934 ft 410 kts 283°
2026-04-19 10:47 55.56975 47.85473 35940 ft 410 kts 283°
2026-04-19 10:47 55.58590 47.75811 35943 ft 410 kts 283°
2026-04-19 10:48 55.60203 47.66139 35943 ft 410 kts 283°
2026-04-19 10:48 55.61814 47.56451 35946 ft 410 kts 283°
2026-04-19 10:49 55.63418 47.46756 35948 ft 411 kts 283°
2026-04-19 10:49 55.65022 47.37047 35945 ft 411 kts 283°
2026-04-19 10:50 55.66614 47.27329 35945 ft 411 kts 282°
2026-04-19 10:50 55.68192 47.17582 35943 ft 411 kts 282°
2026-04-19 10:51 55.69766 47.07835 35946 ft 412 kts 282°
2026-04-19 10:51 55.71342 46.98063 35946 ft 412 kts 282°
2026-04-19 10:52 55.72909 46.88280 35953 ft 412 kts 282°
2026-04-19 10:52 55.74469 46.78484 35952 ft 413 kts 282°
2026-04-19 10:53 55.76024 46.68671 35953 ft 413 kts 282°
2026-04-19 10:53 55.77568 46.58846 35957 ft 413 kts 282°
2026-04-19 10:54 55.79090 46.49000 35955 ft 413 kts 279°
2026-04-19 10:54 55.79688 46.38936 35951 ft 409 kts 271°
2026-04-19 10:55 55.80019 46.28836 35951 ft 410 kts 271°
2026-04-19 10:55 55.80347 46.18720 35951 ft 410 kts 271°
2026-04-19 10:56 55.80665 46.08598 35950 ft 410 kts 270°
2026-04-19 10:56 55.80977 45.98466 35957 ft 411 kts 270°
2026-04-19 10:57 55.81284 45.88321 35961 ft 411 kts 270°
2026-04-19 10:57 55.81581 45.78179 35961 ft 411 kts 270°
2026-04-19 10:58 55.81864 45.68025 35963 ft 411 kts 270°
2026-04-19 10:58 55.82136 45.57861 35964 ft 411 kts 270°
2026-04-19 10:59 55.82362 45.49417 35965 ft 412 kts 270°
2026-04-19 10:59 55.82623 45.39241 35965 ft 412 kts 270°
2026-04-19 11:00 55.82871 45.29071 35966 ft 412 kts 270°
2026-04-19 11:00 55.83111 45.18892 35965 ft 412 kts 270°
2026-04-19 11:01 55.83345 45.08707 35974 ft 412 kts 270°
2026-04-19 11:01 55.83570 44.98524 35971 ft 412 kts 270°
2026-04-19 11:02 55.83796 44.88348 35967 ft 412 kts 269°
2026-04-19 11:02 55.84016 44.78151 35970 ft 412 kts 269°
2026-04-19 11:03 55.84226 44.67962 35971 ft 412 kts 269°
2026-04-19 11:03 55.84429 44.57778 35973 ft 412 kts 269°
2026-04-19 11:04 55.84624 44.47587 35973 ft 412 kts 269°
2026-04-19 11:04 55.84805 44.37389 35975 ft 412 kts 269°
2026-04-19 11:05 55.84982 44.27181 35975 ft 413 kts 269°